Location: Poprad
(49.0500°N, 20.3000°E)
Time: 07:29:39
(UTC+02:00)

M-CUBED/EXP-1 PRIME - Visible Passes

Search period start: 16 April 2024 00:00
Search period end: 26 April 2024 00:00
Orbit: 349 x 432 km, 101.7° (Epoch: 15 April)

Date Brightness Start Highest point End Pass type
(mag) Time Alt. Az. Time Alt. Az. Time Alt. Az.
16 Apr ? 02:31:12 27° NNE 02:31:12 27° NNE 02:33:01 10° N visible
17 Apr ? 01:36:57 10° ENE 01:37:11 10° NE 01:37:48 10° NE visible
17 Apr ? 03:09:19 28° NNW 03:09:19 28° NNW 03:10:57 10° NNW visible
18 Apr ? 02:14:45 22° NE 02:14:45 22° NE 02:16:57 10° N visible
18 Apr ? 03:47:07 16° WNW 03:47:07 16° WNW 03:48:05 10° NW visible
19 Apr ? 02:52:15 44° NNE 02:52:15 44° NNE 02:54:35 10° NNW visible
20 Apr ? 01:57:05 13° ENE 01:57:44 14° ENE 01:59:20 10° NNE visible
20 Apr ? 03:29:24 33° WNW 03:29:24 33° WNW 03:31:27 10° NNW visible
21 Apr ? 02:33:57 29° ENE 02:34:08 30° ENE 02:36:50 10° N visible
21 Apr ? 04:06:15 15° WNW 04:06:15 15° WNW 04:07:22 10° NW visible
22 Apr ? 03:10:28 80° NNE 03:10:28 80° NNE 03:13:24 10° NNW visible
23 Apr ? 02:14:26 14° E 02:15:37 17° ENE 02:17:36 10° NNE visible
23 Apr ? 03:46:40 32° W 03:46:40 32° W 03:49:12 10° NW visible
24 Apr ? 02:50:18 30° ESE 02:51:08 38° ENE 02:53:57 10° N visible
24 Apr ? 04:22:32 13° W 04:22:32 13° W 04:23:52 10° WNW visible
25 Apr ? 03:25:53 52° S 03:26:29 75° WSW 03:29:29 10° NNW visible
